When you browse on this site, cookies collect data to enhance your experience and personalize the content and advertising you see.
Visit our Privacy Policy to learn more. By continuing to use the site, you agree to this use of cookies and data.
  • In Hungary
  • List of Countries
  • For 7 days
  • Water Temperature
  • Weather Map
  • News
  • Weather Widgets
  • user-avatar
    Login

    Hourly Weather Yasenskoe

    Today, 22 January, Wednesday

    Time Temperature Precipitation Wind Pressure Humidity
    00:00 -3°C° 0 mm 6 mps 733 mmHg 75%
    01:00 -3°C° 0 mm 6 mps 733 mmHg 75%
    02:00 -2°C° 0 mm 5 mps 732 mmHg 76%
    03:00 -2°C° 0 mm 5 mps 731 mmHg 78%
    04:00 -2°C° 0 mm 5 mps 730 mmHg 80%
    05:00 -2°C° 0 mm 5 mps 730 mmHg 81%
    06:00 -2°C° 0.3 mm 5 mps 729 mmHg 85%
    07:00 -2°C° 0.3 mm 5 mps 729 mmHg 89%
    08:00 -2°C° 0.3 mm 5 mps 728 mmHg 93%
    09:00 -2°C° 0.7 mm 5 mps 728 mmHg 91%
    10:00 -2°C° 0.7 mm 5 mps 727 mmHg 88%
    11:00 -3°C° 0.7 mm 6 mps 727 mmHg 86%
    12:00 -3°C° 0.2 mm 6 mps 727 mmHg 82%
    13:00 -3°C° 0.2 mm 6 mps 727 mmHg 77%
    14:00 -2°C° 0.2 mm 5 mps 727 mmHg 73%
    15:00 -4°C° 0 mm 5 mps 728 mmHg 75%
    16:00 -4°C° 0 mm 5 mps 728 mmHg 77%
    17:00 -5°C° 0 mm 5 mps 729 mmHg 79%
    18:00 -5°C° 0 mm 5 mps 730 mmHg 80%
    19:00 -5°C° 0 mm 5 mps 730 mmHg 80%
    20:00 -5°C° 0 mm 5 mps 731 mmHg 81%
    21:00 -6°C° 0.1 mm 6 mps 731 mmHg 80%
    22:00 -6°C° 0.1 mm 6 mps 732 mmHg 79%
    23:00 -6°C° 0.1 mm 6 mps 732 mmHg 79%

    Tomorrow, 23 January, Thursday

    Time Temperature Precipitation Wind Pressure Humidity
    00:00 -8°C° 0.1 mm 6 mps 733 mmHg 77%
    01:00 -8°C° 0.1 mm 6 mps 734 mmHg 75%
    02:00 -8°C° 0.1 mm 6 mps 735 mmHg 74%
    03:00 -8°C° 0 mm 6 mps 735 mmHg 70%
    04:00 -9°C° 0 mm 6 mps 735 mmHg 65%
    05:00 -9°C° 0 mm 6 mps 736 mmHg 61%
    06:00 -9°C° 0 mm 6 mps 736 mmHg 61%
    07:00 -9°C° 0 mm 6 mps 737 mmHg 60%
    08:00 -8°C° 0 mm 5 mps 737 mmHg 60%
    09:00 -8°C° 0 mm 6 mps 738 mmHg 58%
    10:00 -8°C° 0 mm 6 mps 738 mmHg 57%
    11:00 -6°C° 0 mm 6 mps 738 mmHg 56%
    12:00 -6°C° 0 mm 6 mps 738 mmHg 59%
    13:00 -6°C° 0 mm 7 mps 738 mmHg 63%
    14:00 -6°C° 0 mm 7 mps 738 mmHg 66%
    15:00 -5°C° 0 mm 6 mps 738 mmHg 66%
    16:00 -5°C° 0 mm 5 mps 738 mmHg 66%
    17:00 -6°C° 0 mm 5 mps 738 mmHg 66%
    18:00 -5°C° 0 mm 4 mps 739 mmHg 70%
    19:00 -5°C° 0 mm 4 mps 739 mmHg 74%
    20:00 -5°C° 0 mm 3 mps 739 mmHg 78%
    21:00 -5°C° 0 mm 3 mps 739 mmHg 80%
    22:00 -5°C° 0 mm 3 mps 739 mmHg 83%
    23:00 -4°C° 0 mm 2 mps 739 mmHg 86%

    Day after tomorrow, 24 January, Friday

    Time Temperature Precipitation Wind Pressure Humidity
    00:00 -5°C° 0 mm 3 mps 738 mmHg 88%
    01:00 -5°C° 0 mm 3 mps 738 mmHg 90%
    02:00 -4°C° 0 mm 3 mps 737 mmHg 92%
    03:00 -4°C° 0 mm 4 mps 736 mmHg 90%
    04:00 -4°C° 0 mm 4 mps 735 mmHg 89%
    05:00 -5°C° 0 mm 5 mps 734 mmHg 87%
    06:00 -4°C° 0.4 mm 5 mps 734 mmHg 90%
    07:00 -4°C° 0.4 mm 5 mps 733 mmHg 93%
    08:00 -4°C° 0.4 mm 5 mps 732 mmHg 96%
    09:00 -2°C° 0.4 mm 4 mps 732 mmHg 96%
    10:00 -1°C° 0.4 mm 4 mps 731 mmHg 96%
    11:00 0°C° 0.4 mm 4 mps 731 mmHg 96%
    12:00 +1°C° 0.2 mm 4 mps 731 mmHg 95%
    13:00 +1°C° 0.2 mm 5 mps 731 mmHg 95%
    14:00 +1°C° 0.2 mm 5 mps 730 mmHg 95%
    15:00 +1°C° 0.1 mm 5 mps 731 mmHg 95%
    16:00 0°C° 0.1 mm 5 mps 731 mmHg 94%
    17:00 0°C° 0.1 mm 4 mps 731 mmHg 94%
    18:00 -1°C° 0 mm 4 mps 731 mmHg 93%
    19:00 0°C° 0 mm 3 mps 731 mmHg 92%
    20:00 -1°C° 0 mm 2 mps 732 mmHg 91%
    21:00 -1°C° 0.1 mm 2 mps 731 mmHg 93%
    22:00 -1°C° 0.1 mm 2 mps 731 mmHg 95%
    23:00 -1°C° 0.1 mm 2 mps 731 mmHg 97%

    25 January, Saturday

    Time Temperature Precipitation Wind Pressure Humidity
    00:00 -1°C° 0.1 mm 2 mps 730 mmHg 96%
    01:00 0°C° 0.1 mm 3 mps 730 mmHg 96%
    02:00 0°C° 0.1 mm 3 mps 730 mmHg 95%
    03:00 0°C° 0 mm 3 mps 730 mmHg 95%
    04:00 0°C° 0 mm 3 mps 730 mmHg 94%
    05:00 0°C° 0 mm 3 mps 729 mmHg 93%
    06:00 0°C° 0 mm 3 mps 729 mmHg 91%
    07:00 -1°C° 0 mm 4 mps 729 mmHg 90%
    08:00 -1°C° 0 mm 4 mps 729 mmHg 88%
    09:00 -1°C° 0 mm 4 mps 729 mmHg 85%
    10:00 -1°C° 0 mm 5 mps 729 mmHg 83%
    11:00 -1°C° 0 mm 5 mps 729 mmHg 80%
    12:00 -1°C° 0 mm 5 mps 728 mmHg 76%
    13:00 -1°C° 0 mm 6 mps 728 mmHg 73%
    14:00 -1°C° 0 mm 6 mps 728 mmHg 69%
    15:00 -2°C° 0.3 mm 7 mps 728 mmHg 70%
    16:00 -2°C° 0.3 mm 7 mps 728 mmHg 72%
    17:00 -3°C° 0.3 mm 7 mps 729 mmHg 73%
    18:00 -4°C° 0 mm 7 mps 729 mmHg 71%
    19:00 -4°C° 0 mm 6 mps 730 mmHg 70%
    20:00 -5°C° 0 mm 6 mps 731 mmHg 69%
    21:00 -5°C° 0 mm 5 mps 731 mmHg 70%
    22:00 -5°C° 0 mm 5 mps 732 mmHg 71%
    23:00 -5°C° 0 mm 5 mps 733 mmHg 72%

    26 January, Sunday

    Time Temperature Precipitation Wind Pressure Humidity
    00:00 -5°C° 0 mm 5 mps 733 mmHg 74%
    01:00 -5°C° 0 mm 5 mps 733 mmHg 76%
    02:00 -5°C° 0 mm 4 mps 734 mmHg 78%
    03:00 -5°C° 0 mm 4 mps 734 mmHg 79%
    04:00 -5°C° 0 mm 4 mps 735 mmHg 80%
    05:00 -5°C° 0 mm 4 mps 735 mmHg 81%
    06:00 -5°C° 0 mm 4 mps 736 mmHg 81%
    07:00 -5°C° 0 mm 3 mps 736 mmHg 81%
    08:00 -5°C° 0 mm 3 mps 737 mmHg 81%
    09:00 -4°C° 0 mm 3 mps 737 mmHg 79%
    10:00 -2°C° 0 mm 3 mps 738 mmHg 78%
    11:00 -2°C° 0 mm 3 mps 739 mmHg 76%
    12:00 -2°C° 0 mm 2 mps 739 mmHg 77%
    13:00 -2°C° 0 mm 2 mps 739 mmHg 77%
    14:00 -1°C° 0 mm 2 mps 740 mmHg 77%
    15:00 0°C° 0 mm 1 mps 740 mmHg 82%
    16:00 -1°C° 0 mm 1 mps 740 mmHg 87%
    17:00 -1°C° 0 mm 1 mps 740 mmHg 92%
    18:00 -1°C° 0 mm 1 mps 741 mmHg 93%
    19:00 -1°C° 0 mm 1 mps 741 mmHg 95%
    20:00 -2°C° 0 mm 1 mps 741 mmHg 96%
    21:00 -1°C° 0 mm 1 mps 741 mmHg 96%
    22:00 -3°C° 0 mm 2 mps 741 mmHg 96%
    23:00 -3°C° 0 mm 2 mps 741 mmHg 96%

    27 January, Monday

    Time Temperature Precipitation Wind Pressure Humidity
    00:00 -3°C° 0.1 mm 2 mps 741 mmHg 96%
    01:00 -4°C° 0.1 mm 3 mps 741 mmHg 96%
    02:00 -2°C° 0.1 mm 3 mps 741 mmHg 95%
    03:00 -2°C° 0.2 mm 3 mps 741 mmHg 96%
    04:00 -2°C° 0.2 mm 3 mps 740 mmHg 96%
    05:00 -2°C° 0.2 mm 3 mps 740 mmHg 96%
    06:00 -2°C° 0.3 mm 3 mps 739 mmHg 96%
    07:00 -1°C° 0.3 mm 3 mps 739 mmHg 97%
    08:00 -1°C° 0.3 mm 3 mps 739 mmHg 97%
    09:00 -2°C° 0.4 mm 4 mps 739 mmHg 97%
    10:00 -2°C° 0.4 mm 4 mps 739 mmHg 96%
    11:00 -1°C° 0.4 mm 4 mps 739 mmHg 95%
    12:00 -1°C° 0 mm 4 mps 738 mmHg 93%
    13:00 -1°C° 0 mm 4 mps 738 mmHg 91%
    14:00 -1°C° 0 mm 4 mps 737 mmHg 88%
    15:00 -1°C° 0.1 mm 4 mps 737 mmHg 91%
    16:00 -1°C° 0.1 mm 4 mps 736 mmHg 94%
    17:00 -2°C° 0.1 mm 4 mps 736 mmHg 97%
    18:00 -2°C° 0.1 mm 4 mps 735 mmHg 96%
    19:00 -2°C° 0.1 mm 4 mps 735 mmHg 96%
    20:00 -2°C° 0.1 mm 4 mps 735 mmHg 96%
    21:00 -2°C° 0.2 mm 4 mps 734 mmHg 96%
    22:00 -2°C° 0.2 mm 4 mps 734 mmHg 96%
    23:00 -2°C° 0.2 mm 4 mps 734 mmHg 96%
    Show more